Location: Battery Park City
(40.7115°N, 74.0163°W)
Time: 05:12:12
(UTC+00:00)

Okean 1 - Pass Details

Date: 08 December 2019
Orbit: 540 x 554 km, 82.5° (Epoch: 25 January)

Event Time Altitude Azimuth Distance (km) Brightness Sun altitude
Rises 23:40:27 0° 193° (SSW) 2,702 7.1 -24.3°
Reaches altitude 10° 23:42:37 10° 196° (SSW) 1,811 6.2 -24.7°
Enters shadow 23:46:09 60° 241° (WSW) 628 3.7 -25.3°
